User: anonymous   Login
Location: Unspecified
(0.0000°N, 0.0000°E)
Time: 10:53:20
(UTC+00:00)
Language:

MetOp-B - Orbit

View from above orbital plane
View from above orbital plane
View from above satellite
View from above satellite

Ground track
Ground track

The orbit data is extracted from the following two-line orbital elements,

1 38771U 12049A   17269.19802707 -.00000005  00000-0  17948-4 0  9990
2 38771  98.7125 327.6868 0000933  29.0810  38.1443 14.21487592260627
Epoch (UTC): 26 September 2017 04:45:09
Eccentricity: 0.0000933
inclination: 98.7125°
perigee height: 819 km
apogee height: 821 km
right ascension of ascending node: 327.6868°
argument of perigee: 29.0810°
revolutions per day: 14.21487592
mean anomaly at epoch: 38.1443°
orbit number at epoch: 26062

The dashed part of the orbit path shows where the satellite is in the earth's shadow,  

DLR